Location: Unspecified
(35.2045°N, 0.0000°E)
Time: 06:17:05
(UTC+00:00)

METEOR M2 - Visible Passes

Search period start: 05 April 2026 00:00
Search period end: 15 April 2026 00:00
Orbit: 817 x 824 km, 98.5° (Epoch: 29 March)

Date Brightness Start Highest point End Pass type
(mag) Time Alt. Az. Time Alt. Az. Time Alt. Az.
5 Apr ? 04:12:06 10° NNE 04:17:30 78° ESE 04:22:51 10° S visible
6 Apr ? 03:51:37 10° NNE 03:56:49 49° E 04:01:58 10° S visible
7 Apr ? 03:31:22 10° NE 03:36:04 31° E 03:40:44 10° SSE visible
7 Apr ? 05:11:30 10° N 05:16:02 29° WNW 05:20:34 10° SW visible
8 Apr ? 03:11:28 10° NE 03:15:16 19° E 03:19:01 10° SE visible
8 Apr ? 04:50:26 10° N 04:55:31 45° WNW 05:00:34 10° SW visible
9 Apr ? 02:52:34 10° ENE 02:54:23 12° E 02:56:12 10° ESE visible
9 Apr ? 04:29:35 10° N 04:34:57 71° WNW 04:40:15 10° SSW visible
10 Apr ? 04:08:56 10° NNE 04:14:18 74° ESE 04:19:38 10° S visible
11 Apr ? 03:48:27 10° NNE 03:53:36 46° E 03:58:42 10° S visible
12 Apr ? 03:28:14 10° NE 03:32:51 29° E 03:37:25 10° SSE visible
13 Apr ? 03:08:25 10° NE 03:12:01 18° E 03:15:36 10° SE visible
13 Apr ? 04:47:12 10° N 04:52:19 48° WNW 04:57:25 10° SW visible
14 Apr ? 02:49:55 10° ENE 02:51:09 11° E 02:52:22 10° ESE visible
14 Apr ? 04:26:22 10° N 04:31:44 76° WNW 04:37:03 10° SSW visible
